Tracking 26321 objects as of 26-Nov-2022
HD Live streaming from Space Station
objects crossing your sky now

HARBINGER

Track HARBINGER now!
10-day predictions


NORAD ID: 44229
Int'l Code: 2019-026E
Perigee: 482.8 km
Apogee: 486.3 km
Inclination: 40.0 °
Period: 94.1 minutes
Semi major axis: 6855 km
RCS: Unknown
Launch date: May 5, 2019
Source: United States (US)
Launch site: Rocket Lab Launch Complex (RLLC)
aabbcc
Your satellite tracking list
Your tracking list is empty




NASA's NSSDC Master Catalog

Two Line Element Set (TLE):
1 44229U 19026E   22329.83323898  .00009779  00000-0  34094-3 0  9996
2 44229  40.0071 160.6377 0002563 141.6612 218.4374 15.29476204198199
Source of the keplerian elements: AFSPC